This is the latest recevied weather packets stored in our database for station/object CA3PBK-13. If no packets are shown the sender has not sent any weather packets the latest 10 day(s).
| Time | Temp. | Humidity | Pressure | Rain* | Wind** | Luminosity | Snow |
|---|---|---|---|---|---|---|---|
| 1778024710 | 18.89° C | 99% | 926.7 hPa | 0 mm | - | - | - |
| 1778024589 | 18.89° C | 99% | 926.7 hPa | 0 mm | - | - | - |
| 1778024469 | 18.89° C | 99% | 926.7 hPa | 0 mm | - | - | - |
| 1778024349 | 19.44° C | 99% | 926.8 hPa | 0 mm | - | - | - |
| 1778024229 | 19.44° C | 99% | 926.7 hPa | 0 mm | - | - | - |
| 1778024111 | 18.89° C | 99% | 926.7 hPa | 0 mm | - | - | - |
| 1778023989 | 19.44° C | 99% | 926.7 hPa | 0 mm | - | - | - |
| 1778023869 | 18.89° C | 99% | 926.7 hPa | 0 mm | - | - | - |
| 1778023749 | 18.89° C | 99% | 926.8 hPa | 0 mm | - | - | - |
| 1778023629 | 18.89° C | 99% | 926.8 hPa | 0 mm | - | - | - |
| 1778023510 | 18.89° C | 99% | 926.8 hPa | 0 mm | - | - | - |
| 1778023389 | 18.89° C | 99% | 926.7 hPa | 0 mm | - | - | - |
| 1778023269 | 18.89° C | 99% | 926.6 hPa | 0 mm | - | - | - |
| 1778023149 | 18.89° C | 99% | 926.4 hPa | 0 mm | - | - | - |
| 1778023029 | 18.33° C | 99% | 926.4 hPa | 0 mm | - | - | - |
| 1778022910 | 18.33° C | 99% | 926.4 hPa | 0 mm | - | - | - |
| 1778022789 | 18.33° C | 99% | 926.4 hPa | 0 mm | - | - | - |
| 1778022669 | 17.78° C | 99% | 926.4 hPa | 0 mm | - | - | - |
| 1778022549 | 17.78° C | 99% | 926.4 hPa | 0 mm | - | - | - |
| 1778022429 | 17.78° C | 99% | 926.5 hPa | 0 mm | - | - | - |
| 1778022310 | 18.33° C | 99% | 926.5 hPa | 0 mm | - | - | - |
| 1778022189 | 18.33° C | 99% | 926.4 hPa | 0 mm | - | - | - |
| 1778022069 | 18.33° C | 99% | 926.4 hPa | 0 mm | - | - | - |
| 1778021949 | 18.33° C | 99% | 926.4 hPa | 0 mm | - | - | - |
| 1778021829 | 18.33° C | 99% | 926.4 hPa | 0 mm | - | - | - |
* Rain latest hour (hover to see other rain measurements)
** Current wind speed in m/s (hover to see current wind gust speed)